Wind_Speed
13 11 6 4 2 1 2 3 4 3 5 7 7 7 7 10 12 15 16 18 19 20 25 27 31 32 25 37 34 32 29 25 21 19 21 22 24 22 21 21 23 21 21 24 21
13 9 6 5 5 4 4 5 4 4 3 4 4 4 4 5 7 9 11 14 15 18 22 26 26 29 32 21 21 26 29 30 24 19 15 16 17 16 17 20 22 20 19 20 20
15 11 8 9 8 10 9 8 9 8 7 8 8 6 5 4 4 4 6 9 11 14 18 23 24 13 30 24 18 20 20 27 29 25 19 14 12 12 10 13 15 17 20 21 20
18 17 14 12 12 14 15 13 12 14 13 12 12 12 9 8 5 2 3 5 8 10 12 15 15 11 13 11 11 13 16 19 22 25 24 19 14 11 8 8 11 11 12 14 15
23 21 18 14 15 16 16 17 17 17 19 17 17 16 16 15 13 10 5 3 6 8 8 6 5 3 9 8 11 12 10 11 15 17 20 21 17 14 9 8 9 11 13 14 16
29 26 22 19 18 17 17 17 18 17 19 21 21 20 21 20 18 15 14 11 6 8 8 6 6 7 10 12 8 8 10 7 7 11 13 16 18 17 13 7 7 8 9 12 14
32 29 25 23 24 22 21 21 22 21 21 23 24 24 23 23 23 22 20 17 16 11 12 10 8 8 5 11 12 12 13 10 2 5 7 10 13 17 16 12 9 9 12 16 19
28 28 27 28 26 27 27 26 26 27 27 27 25 26 25 25 26 26 24 22 22 20 17 16 13 11 9 16 13 11 13 15 9 3 3 4 6 12 15 14 10 12 12 17 21
35 32 31 30 30 30 30 30 31 31 32 32 30 29 28 28 28 29 29 27 26 25 22 21 18 17 13 11 11 9 16 20 17 9 7 6 2 5 10 14 11 11 16 17 23
37 40 39 39 35 36 35 35 35 36 36 35 33 33 34 33 31 31 29 29 29 28 25 23 19 18 15 13 14 15 18 22 17 14 11 9 6 3 1 9 13 11 15 17 21
48 46 45 40 41 41 41 42 41 41 40 40 40 40 41 41 38 36 34 33 29 29 28 26 21 16 14 19 32 28 29 27 21 14 12 12 11 9 5 2 9 13 14 20 29
51 50 46 45 43 45 46 46 47 45 46 47 47 47 46 45 43 40 36 31 30 28 28 26 24 21 17 22 22 25 29 27 21 20 15 14 17 12 9 8 7 13 17 22 34
58 57 55 52 51 47 47 50 51 51 51 51 52 50 49 46 43 39 35 32 28 26 25 22 23 21 20 20 21 23 23 22 22 24 22 25 16 17 16 13 13 13 18 22 27
63 62 61 60 58 57 55 54 54 54 55 54 53 53 52 46 42 37 35 33 30 27 23 20 19 19 19 20 20 21 20 20 23 29 29 27 26 16 16 18 18 18 21 23 25
65 65 63 61 64 65 63 62 61 59 58 60 57 52 45 41 40 37 35 33 28 24 22 20 20 20 18 20 22 21 21 22 26 30 38 34 31 18 20 25 24 22 22 26 26
56 58 59 60 62 62 62 62 62 59 60 56 48 44 41 39 36 33 31 29 26 25 24 22 21 20 19 20 21 21 21 21 24 28 35 36 36 35 11 29 27 28 28 24 24
48 49 51 51 51 50 50 49 50 48 47 45 42 38 36 35 34 31 29 27 27 24 24 24 23 21 20 20 21 22 22 21 21 23 25 35 34 41 37 26 35 31 32 31 28
39 40 41 42 42 42 42 41 42 40 38 37 35 34 32 32 32 31 29 28 30 29 28 27 24 23 22 22 23 24 25 25 26 25 24 28 31 40 46 43 39 42 33 34 35
36 36 36 36 36 36 35 35 34 32 32 30 30 31 31 31 31 31 29 28 31 31 29 30 24 26 24 24 24 25 28 28 28 29 29 30 29 31 43 46 46 43 43 41 42
40 40 39 38 37 35 35 36 32 32 28 27 28 29 30 31 32 33 31 31 33 33 31 30 28 29 27 28 30 29 29 30 31 33 33 33 36 30 33 34 47 52 48 45 43
33 34 37 38 40 40 41 41 37 36 35 30 31 30 32 33 33 35 37 35 35 34 35 33 33 31 33 32 31 32 33 33 33 35 35 37 41 38 35 38 38 35 40 51 54
33 30 35 35 35 37 39 40 35 40 39 37 36 36 38 36 37 39 41 37 36 41 41 38 37 37 35 37 34 35 36 35 34 36 38 38 47 40 39 44 40 34 41 40 43
37 35 38 38 38 38 40 39 38 41 39 40 40 41 41 43 42 43 46 38 39 50 41 42 42 42 39 41 39 42 39 36 35 37 38 39 45 46 42 46 44 39 44 45 44
41 40 41 43 43 44 45 43 44 44 43 43 44 42 46 47 45 46 49 43 44 50 44 48 46 44 43 45 45 40 40 38 39 40 41 41 45 50 51 43 43 39 43 48 47
45 42 45 43 44 47 49 50 51 49 48 46 48 46 48 46 47 48 50 50 43 48 50 50 49 50 49 50 52 48 46 44 46 48 48 48 49 53 60 46 45 43 46 47 47
45 44 44 45 46 46 48 52 54 54 52 54 53 52 51 53 53 52 49 53 54 50 55 53 53 55 53 54 57 53 51 53 54 56 55 55 55 61 66 55 48 46 46 52 50
48 46 46 45 48 46 44 48 54 55 55 59 57 58 59 54 57 59 58 59 56 54 56 57 59 58 55 59 59 55 58 62 63 63 61 61 62 68 65 58 53 56 56 58 57
Wind_Direction
168 163 166 173 171 66 32 51 36 50 45 45 62 62 57 50 47 42 48 51 55 50 49 50 58 56 44 51 44 48 67 78 93 105 129 154 167 168 172 176 174 179 192 200 202
187 185 195 222 257 261 302 314 326 340 352 351 16 25 31 47 46 45 38 40 53 47 46 42 53 57 65 59 36 45 54 66 74 87 100 118 142 165 184 200 201 197 194 200 208
208 213 213 233 250 267 268 289 301 300 310 314 320 324 328 344 2 31 34 25 26 43 47 45 64 46 30 14 20 42 33 57 66 74 84 94 103 123 152 175 186 199 206 207 206
225 230 230 239 256 258 270 270 281 296 296 299 300 307 309 301 300 328 10 12 358 19 37 40 36 19 13 356 18 37 29 41 57 65 69 82 90 98 117 147 174 190 202 201 189
239 240 236 235 247 262 269 273 274 275 288 293 291 296 297 295 296 297 299 319 327 336 9 23 61 3 99 326 334 351 7 36 37 59 68 67 75 73 80 120 157 176 183 190 194
241 241 238 236 244 259 261 272 274 277 279 284 284 285 290 293 291 290 295 296 305 312 308 314 313 324 324 328 344 333 355 44 28 31 55 65 67 64 60 80 135 162 178 176 182
240 240 237 241 245 251 257 262 263 269 277 278 280 281 281 282 288 291 291 287 288 286 284 286 302 319 17 292 320 334 351 349 3 9 18 60 63 70 56 54 78 134 158 162 173
237 234 237 244 248 246 256 264 266 266 271 277 277 279 286 285 285 286 281 279 281 283 285 284 285 285 275 298 308 296 7 309 291 241 299 343 62 68 70 63 66 115 130 150 163
236 239 242 247 250 255 259 262 267 270 267 269 276 279 283 282 283 281 279 278 277 275 274 279 277 279 275 294 265 269 190 233 266 241 229 251 262 72 70 77 79 108 122 139 153
242 242 248 244 248 255 259 262 267 268 272 274 281 287 290 289 292 288 281 281 282 278 276 273 276 271 260 206 233 262 250 262 261 255 242 228 255 257 77 84 92 104 132 144 161
246 251 251 249 252 255 258 262 266 269 273 276 282 284 290 293 293 293 290 291 288 287 280 275 275 270 248 227 221 241 252 257 247 227 228 227 237 255 243 148 112 119 134 150 158
244 247 245 247 252 259 259 266 269 272 273 277 281 282 286 290 290 287 286 288 287 286 285 281 275 269 242 249 243 247 251 252 242 231 223 271 226 233 241 227 173 147 147 152 160
242 245 247 248 250 252 257 260 264 267 271 275 279 282 286 288 286 284 283 283 283 280 280 282 278 272 262 247 244 247 247 248 229 224 212 216 232 239 224 237 211 184 170 169 174
247 249 250 252 253 253 255 257 261 263 268 273 277 282 283 280 277 276 275 275 276 275 273 270 263 256 252 254 252 251 247 246 236 215 219 205 217 222 235 229 233 210 196 192 193
248 249 253 255 256 257 259 261 262 265 267 273 276 277 275 272 271 271 270 268 266 260 259 260 259 255 244 244 247 247 242 236 233 230 216 215 204 193 218 229 234 231 221 212 209
248 249 252 254 257 258 260 263 264 267 271 274 272 270 267 265 265 264 260 256 252 250 242 249 255 254 253 248 246 249 255 243 236 232 228 222 211 208 235 233 226 238 236 230 230
248 250 252 255 257 259 262 264 266 267 268 268 267 265 262 258 256 253 248 242 234 237 227 239 250 255 254 252 251 246 246 243 247 246 233 232 224 208 209 226 227 227 228 236 240
246 248 250 252 254 256 258 260 262 264 264 261 259 257 253 250 248 246 242 238 229 235 229 236 244 258 260 256 249 247 247 242 235 233 243 246 236 223 226 235 230 237 234 229 234
246 248 250 251 252 254 255 254 256 257 255 255 249 247 245 243 242 241 239 239 233 238 237 239 238 255 259 258 253 247 248 249 247 242 243 242 241 238 233 233 243 244 232 232 238
249 250 250 251 252 252 253 254 255 255 255 251 245 241 237 239 241 241 236 240 238 243 248 252 241 253 261 257 252 249 247 246 248 250 249 248 245 241 247 237 237 246 250 253 257
249 252 253 253 254 254 253 256 256 256 254 251 247 242 239 238 237 237 236 238 241 245 249 247 252 253 258 251 248 250 249 249 246 249 251 251 249 237 240 245 240 239 245 249 251
249 252 255 255 256 255 254 255 254 248 252 249 246 245 244 242 239 240 239 237 247 244 248 248 253 256 246 251 247 247 247 246 246 248 250 253 256 242 240 244 244 239 246 248 247
249 249 253 254 255 257 256 253 247 249 246 243 244 244 245 245 242 242 244 240 238 250 245 250 249 250 247 250 246 245 247 249 250 248 249 250 257 255 241 244 244 243 244 246 248
250 251 254 255 256 257 257 255 251 249 243 241 241 240 241 243 245 246 249 241 240 246 247 246 248 247 246 247 251 246 245 244 247 248 250 251 257 259 249 243 242 240 244 245 246
252 253 254 255 258 258 256 253 251 248 249 242 243 240 242 242 243 243 246 250 242 248 245 246 245 246 246 248 248 245 245 244 250 250 251 253 255 260 259 248 242 237 240 245 243
252 252 255 257 258 260 258 255 253 252 249 247 247 246 245 244 244 247 248 248 245 240 250 247 246 246 247 249 252 248 246 246 246 251 252 251 253 256 255 255 254 247 248 251 239
250 253 255 257 259 262 264 258 253 253 249 252 250 250 249 250 249 246 245 246 248 245 244 250 251 248 248 250 251 257 254 249 246 247 250 251 254 256 259 257 255 254 253 253 252
Height
10992 10993 10994 10996 10997 10999 11000 11001 11001 11002 11002 11003 11004 11004 11005 11005 11006 11005 11004 11003 11001 10999 10999 11000 11003 10998 10988 10986 10995 11001 10993 10990 10988 10987 10986 10986 10987 10987 10989 10989 10990 10992 10994 10996 10998
10992 10994 10995 10997 10997 10999 11000 11001 11002 11003 11003 11004 11004 11005 11006 11007 11008 11008 11007 11005 11004 11004 11006 11008 11006 11001 10996 11000 11004 11005 11000 10994 10992 10991 10992 10991 10989 10989 10989 10990 10991 10993 10994 10996 10998
10991 10994 10996 10998 10999 10999 11001 11002 11002 11003 11004 11004 11004 11005 11006 11007 11008 11010 11009 11008 11006 11009 11010 11011 11008 11003 11002 11011 11011 11006 11007 10999 10996 10995 10994 10994 10993 10992 10991 10991 10991 10993 10994 10996 10998
10991 10994 10996 10997 10998 10999 11000 11002 11003 11001 11003 11004 11005 11004 11005 11006 11008 11010 11011 11011 11009 11011 11012 11010 10994 11007 11014 11019 11016 11011 11007 11004 11001 10999 10997 10996 10996 10995 10992 10992 10991 10992 10994 10997 10999
10989 10992 10995 10996 10998 10999 10999 11000 11002 11002 11001 11002 11002 11004 11004 11005 11007 11009 11011 11012 11011 11011 11012 11011 11013 11012 11021 11018 11012 11009 11010 11007 11004 11002 11000 10998 10997 10996 10995 10992 10992 10993 10994 10995 10998
10988 10990 10993 10995 10996 10998 10999 10999 10999 11001 11001 11000 11001 11002 11002 11003 11005 11008 11009 11012 11013 11011 11011 11011 11011 11013 11014 11014 11012 11011 11011 11008 11007 11006 11003 11001 10998 10997 10995 10993 10991 10992 10993 10995 10999
10985 10987 10990 10992 10994 10995 10997 10997 10998 10998 10999 10999 10999 11000 11002 11003 11004 11005 11007 11010 11011 11011 11009 11010 11013 11013 11010 11010 11011 11009 11009 11007 11007 11008 11006 11004 11002 10998 10997 10994 10991 10991 10992 10993 10998
10982 10984 10986 10988 10990 10992 10993 10994 10994 10996 10996 10996 10996 10997 10999 11000 11001 11003 11005 11007 11008 11008 11007 11007 11010 11009 11009 11009 11008 11005 11006 11005 11008 11007 11008 11007 11005 11001 10998 10996 10994 10993 10993 10995 10998
10978 10980 10983 10984 10986 10987 10989 10990 10990 10991 10992 10993 10993 10994 10995 10996 10997 10998 11000 11002 11004 11006 11006 11004 11006 11007 11009 11008 11005 11005 11006 11005 11006 11006 11006 11007 11007 11004 11002 10998 10997 10995 10995 10998 11001
10972 10975 10977 10979 10980 10981 10983 10984 10986 10986 10987 10988 10990 10990 10990 10990 10991 10992 10994 10996 10998 11000 11001 11001 11002 11001 11002 11004 10998 10999 11002 11003 11004 11006 11007 11008 11008 11007 11005 11002 11000 10999 10998 11000 11005
10965 10968 10970 10972 10974 10976 10977 10978 10980 10981 10982 10983 10984 10985 10984 10984 10985 10986 10987 10988 10991 10992 10993 10995 10998 10998 10996 10997 10996 10997 10998 11000 11001 11004 11006 11008 11008 11009 11009 11006 11003 11002 11002 11002 11005
10957 10960 10962 10965 10968 10969 10970 10971 10973 10974 10975 10976 10977 10978 10979 10979 10979 10980 10981 10983 10984 10985 10985 10988 10990 10992 10995 10991 10993 10995 10995 10996 10998 11001 11003 10997 11003 11008 11009 11008 11006 11004 11004 11005 11008
10949 10951 10954 10957 10959 10961 10962 10964 10966 10966 10968 10969 10969 10970 10972 10973 10972 10973 10974 10976 10978 10979 10980 10981 10982 10983 10985 10986 10987 10988 10988 10988 10992 10995 10998 10996 10998 11004 11005 11008 11007 11007 11006 11007 11009
10940 10942 10945 10948 10951 10952 10953 10955 10956 10958 10960 10961 10961 10962 10963 10964 10964 10967 10967 10969 10971 10972 10973 10975 10976 10977 10978 10978 10980 10981 10982 10983 10987 10992 10995 10996 10999 10999 11000 11003 11008 11007 11007 11008 11009
10929 10932 10935 10938 10940 10941 10943 10945 10946 10948 10951 10951 10952 10953 10954 10956 10957 10959 10961 10962 10965 10965 10967 10969 10970 10971 10972 10973 10974 10976 10977 10979 10981 10984 10987 10991 10993 10995 10998 10999 11003 11004 11006 11007 11009
10918 10922 10925 10927 10929 10931 10933 10934 10936 10939 10940 10939 10940 10943 10944 10947 10948 10950 10953 10955 10957 10959 10961 10963 10964 10965 10967 10969 10970 10971 10972 10974 10976 10978 10981 10983 10986 10990 10997 10993 10995 10998 11002 11004 11006
10908 10912 10914 10916 10917 10920 10922 10924 10925 10927 10928 10929 10930 10933 10935 10937 10939 10941 10945 10948 10950 10953 10956 10957 10959 10961 10962 10963 10965 10968 10969 10970 10971 10973 10975 10977 10982 10986 10984 10981 10987 10989 10994 10998 11000
10899 10902 10905 10907 10908 10911 10913 10915 10916 10917 10919 10920 10922 10923 10926 10928 10931 10934 10937 10940 10943 10946 10949 10952 10954 10955 10957 10959 10960 10962 10964 10966 10967 10968 10971 10969 10974 10978 10979 10978 10983 10986 10989 10990 10992
10891 10894 10896 10898 10901 10903 10905 10906 10909 10910 10910 10913 10914 10916 10918 10921 10924 10927 10930 10933 10936 10939 10942 10945 10949 10949 10951 10953 10955 10957 10957 10959 10960 10962 10963 10964 10966 10969 10971 10974 10974 10976 10980 10983 10985
10882 10885 10888 10890 10893 10896 10898 10897 10902 10902 10905 10906 10907 10910 10912 10915 10917 10920 10923 10926 10929 10931 10934 10938 10941 10942 10945 10946 10947 10949 10951 10952 10954 10954 10956 10957 10956 10964 10960 10964 10967 10966 10968 10971 10972
10873 10876 10877 10881 10884 10887 10888 10890 10894 10894 10897 10900 10901 10904 10905 10909 10911 10913 10916 10919 10921 10924 10927 10929 10931 10936 10936 10938 10940 10941 10943 10944 10946 10946 10947 10947 10945 10952 10955 10955 10955 10962 10965 10961 10961
10866 10869 10867 10871 10874 10876 10878 10880 10886 10884 10889 10891 10894 10896 10897 10901 10903 10905 10906 10913 10916 10915 10917 10921 10924 10926 10929 10928 10932 10933 10933 10935 10938 10938 10938 10938 10929 10943 10945 10943 10950 10957 10951 10955 10955
10857 10861 10860 10863 10864 10867 10868 10872 10873 10875 10879 10882 10884 10887 10890 10891 10894 10896 10895 10907 10910 10901 10912 10913 10914 10915 10919 10919 10922 10921 10926 10930 10931 10931 10931 10931 10921 10927 10934 10934 10941 10947 10944 10945 10947
10847 10850 10852 10853 10855 10856 10858 10861 10864 10864 10868 10872 10874 10879 10878 10880 10884 10886 10886 10896 10897 10895 10902 10900 10904 10907 10909 10909 10910 10916 10918 10920 10919 10920 10921 10921 10917 10914 10915 10927 10932 10936 10933 10936 10938
10835 10841 10838 10843 10844 10844 10846 10849 10849 10853 10856 10860 10862 10866 10867 10872 10873 10875 10876 10879 10889 10887 10888 10891 10895 10895 10898 10898 10898 10904 10907 10909 10908 10908 10908 10908 10909 10905 10897 10915 10918 10926 10924 10925 10926
10824 10826 10827 10830 10829 10831 10833 10834 10836 10840 10844 10844 10849 10852 10856 10857 10860 10865 10870 10866 10868 10876 10874 10878 10881 10882 10887 10887 10884 10891 10896 10895 10893 10893 10894 10896 10897 10890 10882 10898 10906 10911 10914 10910 10914
10810 10813 10813 10818 10815 10817 10821 10822 10822 10825 10830 10829 10836 10837 10839 10849 10847 10847 10850 10852 10857 10862 10863 10862 10863 10868 10874 10870 10873 10881 10878 10875 10875 10877 10879 10882 10881 10874 10877 10887 10893 10892 10896 10895 10899